Location: Delettes
(50.6178°N, 2.2123°E)
Time: 06:20:49
(UTC+00:00)

Cosmos 1092 Rocket - Pass Details

Date: 27 February 2020
Orbit: 955 x 994 km, 82.9° (Epoch: 27 March)

Event Time Altitude Azimuth Distance (km) Brightness Sun altitude
Rises 18:43:10 0° 353° (N) 3,723 7.2 -12.6°
Reaches altitude 10° 18:45:53 10° 1° (N) 2,772 6.4 -13.1°
Maximum altitude 18:51:53 42° 71° (ENE) 1,389 4.4 -14.0°
Drops below altitude 10° 18:57:51 10° 141° (SE) 2,751 6.0 -15.0°
Enters shadow 18:58:48 - 144° (SE) 3,082 6.2 -15.1°
